{"data":{"norad_id":60733,"epoch":"2026-05-25T01:18:06.031008Z","epoch_age_seconds":73377,"freshness":"FRESH","line1":"1 60733U 24152P   26145.05423647  .00000755  00000+0  37615-4 0  9994","line2":"2 60733  53.1610 273.6401 0001049  90.8806 269.2315 15.30195993 98498","mean_motion":15.30195993,"eccentricity":0.0001049,"inclination_deg":53.161,"raan_deg":273.6401,"arg_perigee_deg":90.8806,"mean_anomaly_deg":269.2315,"bstar":3.7615e-5,"rev_number":9849,"period_min":94.105592132471,"perigee_km":474.50811573804,"apogee_km":475.94595151229,"semimajor_km":6853.3640336252,"source":"CELESTRAK","updated_at":"2026-05-25T13:38:19.310326Z"}}